Weather Roundup
Issued by NWS Springfield, MO

Home | Current Version | Previous Version | Graphics & Text | Print | Product List | Glossary On
Versions: 1 2 3 4 5 6 7 8 9 10 11 12 13 14 15 16 17 18 19 20 21 22 23 24 25 26 27 28 29 30 31 32 33 34 35 36 37 38 39 40 41 42 43 44 45 46 47 48 49 50
000
NZUS99 KSGF 050607
HRRSGF

HOURLY WEATHER
NATIONAL WEATHER SERVICE SPRINGFIELD MO
100 AM CDT SUN JUL 05 2015

......SGF CWA......

CITY           SKY/WX    TMP DP  RH WIND       PRES   REMARKS
SPRINGFIELD    PTCLDY    73  68  84 S7        30.02S
6HR MIN TEMP:  73; 6HR MAX TEMP:  83;

JOPLIN         PTCLDY    73  68  84 SE6       30.00S
6HR MIN TEMP:  72; 6HR MAX TEMP:  83;

WEST PLAINS    MOCLDY    71  68  90 SE3       30.07R
6HR MIN TEMP:  71; 6HR MAX TEMP:  79;

ROLLA          PTCLDY    69  65  86 SE6       30.04R
6HR MIN TEMP:  68; 6HR MAX TEMP:  78;

OSAGE BEACH    PTCLDY    70  64  83 E3        30.03R
BRANSON          N/A     70  68  94 CALM      30.04S

......SURROUNDING SGF CWA......

CITY           SKY/WX    TMP DP  RH WIND       PRES   REMARKS
CHANUTE        CLEAR     72  68  87 E6        29.99R
PARSONS        CLEAR     76  69  79 SE5       29.99S
COFFEYVILLE    CLEAR     74  69  85 SE6       29.97S
EMPORIA        CLEAR     71  66  84 SE12      29.98S
GROVE OK       CLEAR     72  72 100 CALM      30.00S
ROGERS AR      CLEAR     72  68  87 SE6       30.04R
SILOAM SPRINGS CLEAR     72  64  78 SE3         N/A
HARRISON AR    CLEAR     70  69  97 SE5       30.04S
NEAR YELLVILLE   N/A     72  68  88 CALM      30.01S

......KANSAS AND MISSOURI......

CITY           SKY/WX    TMP DP  RH WIND       PRES   REMARKS
KANSAS CTY INT CLEAR     68  63  84 SE8       30.01R
DOWNTOWN KC    CLEAR     75  64  68 SE7       30.00R
COLUMBIA       CLEAR     69  65  86 SE7       30.04R
SEDALIA        CLEAR     70  65  84 SE7       30.03R
ST JOSEPH      CLEAR     70  64  81 CALM      30.00R
ST LOUIS       CLEAR     70  62  76 SE5       30.05R HAZE
SPIRIT OF STL  CLEAR     67  64  90 CALM      30.03R FOG
KIRKSVILLE     RAIN      63  60  90 CALM      30.04R
WICHITA        CLEAR     77  65  66 SE8       29.96R
TOPEKA         CLEAR     70  65  84 E5        29.99R
OLATHE         CLEAR     69  64  84 SE3       30.01R HAZE

......TENNESSEE......

CITY           SKY/WX    TMP DP  RH WIND       PRES   REMARKS
MEMPHIS        MOCLDY    72  69  90 S7        30.04S
NASHVILLE      LGT RAIN  69  69 100 CALM      30.02S FOG

......ARKANSAS.......

CITY           SKY/WX    TMP DP  RH WIND       PRES   REMARKS
FAYETTEVILLE   CLEAR     68  68 100 CALM      30.03R FOG
FT SMITH       MOCLDY    77  71  82 CALM      29.99R
LITTLE ROCK    PTCLDY    72  69  90 S3        30.02R

......OKLAHOMA.......

CITY           SKY/WX    TMP DP  RH WIND       PRES   REMARKS
TULSA          PTCLDY    80  69  69 S10       29.97R
PONCA CITY     PTCLDY    79  70  74 SE12      29.96R
MCALESTER      CLEAR     71  67  87 S3        29.99S
OKLAHOMA CITY  MOCLDY    74  72  93 S10       29.98R

......IOWA............

CITY           SKY/WX    TMP DP  RH WIND       PRES   REMARKS
DES MOINES     CLEAR     68  60  75 S6        30.00R
QUAD CITIES    CLEAR     64  60  87 CALM      30.02S

......ILLINOIS........

CITY           SKY/WX    TMP DP  RH WIND       PRES   REMARKS
QUINCY         CLEAR     68  63  84 SE5       30.03S
CHICAGO        PTCLDY    67  56  67 SE5       30.03S SMOKE



USA.gov is the U.S. government's official web portal to all federal, state and local government web resources and services.